{"data":{"norad_id":48293,"intl_designator":"2021-036T","name":"STARLINK-2550","alt_names":[],"object_type":"PAYLOAD","status":"ACTIVE","operator":null,"country":"US","launch_date":"2021-04-29","launch_site_code":"AFETR","launch_vehicle":null,"mission":null,"orbit_class":"UNKNOWN","rcs_meters":null,"size_class":null,"mass_kg":null,"dimensions":null,"purposes":["comms"],"wikipedia_slug":null,"has_3d_model":false,"image_url":null,"decayed_at":null,"tle_current":{"epoch":"2026-05-25T02:26:31.896384Z","epoch_age_seconds":65561,"freshness":"FRESH","line1":"1 48293U 21036T   26145.10175806  .00000231  00000+0  19206-4 0  9991","line2":"2 48293  53.1601  80.0140 0001185  85.6647 274.4489 15.31702585280115","mean_motion":15.31702585,"eccentricity":0.0001185,"inclination_deg":53.1601,"raan_deg":80.014,"arg_perigee_deg":85.6647,"mean_anomaly_deg":274.4489,"bstar":1.9206e-5,"rev_number":28011,"period_min":94.013029298374,"perigee_km":469.92069847519,"apogee_km":471.5438804968,"semimajor_km":6848.869289486,"source":"CELESTRAK","updated_at":"2026-05-25T13:38:16.674932Z"}}}